Time,TemperatureF,DewpointF,PressureIn,WindDirection,WindDirectionDegrees,WindSpeedMPH,WindSpeedGustMPH,Humidity,HourlyPrecipIn,Conditions,Clouds,dailyrainin,SoftwareType,DateUTC
2013-04-09 00:07:00,37.9,37.9,29.95,West,271,1.0,1.0,100,0.00,,,0.00,Wunderground v.1.15,2013-04-09 04:07:00,
2013-04-09 00:17:00,37.9,37.9,29.96,West,271,0.0,0.0,100,0.00,,,0.00,Wunderground v.1.15,2013-04-09 04:17:00,
2013-04-09 00:27:00,37.9,37.9,29.97,West,271,0.0,0.0,100,0.00,,,0.00,Wunderground v.1.15,2013-04-09 04:27:00,
2013-04-09 00:37:00,37.9,37.9,29.97,West,271,0.0,0.0,100,0.00,,,0.00,Wunderground v.1.15,2013-04-09 04:37:00,
2013-04-09 00:47:00,37.9,37.9,29.96,West,271,0.0,0.0,100,0.00,,,0.00,Wunderground v.1.15,2013-04-09 04:47:00,
2013-04-09 00:57:00,37.9,37.9,29.97,West,271,0.0,0.0,100,0.00,,,0.00,Wunderground v.1.15,2013-04-09 04:57:00,
2013-04-09 01:07:00,38.0,38.0,29.97,West,271,1.0,1.0,100,0.00,,,0.00,Wunderground v.1.15,2013-04-09 05:07:00,
2013-04-09 01:17:00,38.0,38.0,29.98,West,271,3.0,3.0,100,0.00,,,0.00,Wunderground v.1.15,2013-04-09 05:17:00,
2013-04-09 01:27:00,38.0,38.0,29.99,West,271,2.0,2.0,100,0.00,,,0.00,Wunderground v.1.15,2013-04-09 05:27:00,
2013-04-09 01:37:00,38.0,38.0,29.99,West,271,0.0,0.0,100,0.00,,,0.00,Wunderground v.1.15,2013-04-09 05:37:00,
2013-04-09 01:47:00,37.9,37.9,29.99,West,271,0.0,0.0,100,0.00,,,0.00,Wunderground v.1.15,2013-04-09 05:47:00,
2013-04-09 01:57:00,38.0,38.0,29.99,West,271,0.0,0.0,100,0.00,,,0.00,Wunderground v.1.15,2013-04-09 05:57:00,
2013-04-09 02:07:00,38.2,38.2,29.99,West,271,0.0,2.0,100,0.00,,,0.00,Wunderground v.1.15,2013-04-09 06:07:00,
2013-04-09 02:17:00,38.2,38.2,29.99,West,271,2.0,2.0,100,0.00,,,0.00,Wunderground v.1.15,2013-04-09 06:17:00,
2013-04-09 02:27:00,38.5,38.5,30.00,West,271,1.0,2.0,100,0.00,,,0.00,Wunderground v.1.15,2013-04-09 06:27:00,
2013-04-09 02:37:00,38.6,38.6,30.00,West,271,2.0,3.0,100,0.00,,,0.00,Wunderground v.1.15,2013-04-09 06:37:00,
2013-04-09 02:47:00,38.6,38.6,29.99,West,271,1.0,4.0,100,0.00,,,0.00,Wunderground v.1.15,2013-04-09 06:47:00,
2013-04-09 02:57:00,38.9,38.9,29.99,North,350,2.0,2.0,100,0.00,,,0.00,Wunderground v.1.15,2013-04-09 06:57:00,
2013-04-09 03:07:00,39.1,39.1,29.99,North,350,1.0,1.0,100,0.00,,,0.00,Wunderground v.1.15,2013-04-09 07:07:00,
2013-04-09 03:17:00,39.2,39.2,29.99,North,350,0.0,3.0,100,0.00,,,0.00,Wunderground v.1.15,2013-04-09 07:17:00,
2013-04-09 03:27:00,39.3,39.3,29.98,ENE,78,2.0,3.0,100,0.00,,,0.00,Wunderground v.1.15,2013-04-09 07:27:00,
2013-04-09 03:37:00,39.3,39.3,29.98,East,86,2.0,3.0,100,0.00,,,0.00,Wunderground v.1.15,2013-04-09 07:37:00,
2013-04-09 03:47:00,39.5,39.5,29.99,East,84,3.0,6.0,100,0.00,,,0.00,Wunderground v.1.15,2013-04-09 07:47:00,
2013-04-09 03:57:00,39.6,39.6,29.99,East,86,3.0,3.0,100,0.00,,,0.00,Wunderground v.1.15,2013-04-09 07:57:00,
2013-04-09 04:07:00,39.6,39.6,29.99,East,86,1.0,1.0,100,0.00,,,0.00,Wunderground v.1.15,2013-04-09 08:07:00,
2013-04-09 04:17:00,39.6,39.6,29.99,East,86,2.0,2.0,100,0.00,,,0.00,Wunderground v.1.15,2013-04-09 08:17:00,
2013-04-09 04:27:00,39.6,39.6,29.98,East,86,3.0,5.0,100,0.00,,,0.00,Wunderground v.1.15,2013-04-09 08:27:00,
2013-04-09 04:47:00,39.6,39.6,29.98,ENE,76,4.0,4.0,100,0.00,,,0.00,Wunderground v.1.15,2013-04-09 08:47:00,
2013-04-09 04:57:00,39.6,39.6,30.00,ESE,119,4.0,5.0,100,0.00,,,0.00,Wunderground v.1.15,2013-04-09 08:57:00,
2013-04-09 05:07:00,39.6,39.6,30.00,ESE,110,6.0,6.0,100,0.00,,,0.00,Wunderground v.1.15,2013-04-09 09:07:00,
2013-04-09 05:17:00,39.6,39.6,30.00,ESE,112,5.0,5.0,100,0.00,,,0.00,Wunderground v.1.15,2013-04-09 09:17:00,
2013-04-09 05:27:00,39.6,39.6,30.00,ESE,106,6.0,6.0,100,0.00,,,0.00,Wunderground v.1.15,2013-04-09 09:27:00,
2013-04-09 05:37:00,39.6,39.6,30.00,SE,125,4.0,4.0,100,0.00,,,0.00,Wunderground v.1.15,2013-04-09 09:37:00,
2013-04-09 05:47:00,39.8,39.8,30.01,ESE,112,3.0,5.0,100,0.00,,,0.00,Wunderground v.1.15,2013-04-09 09:47:00,
2013-04-09 05:57:00,39.8,39.8,30.01,ESE,113,5.0,5.0,100,0.00,,,0.00,Wunderground v.1.15,2013-04-09 09:57:00,
2013-04-09 06:07:00,39.8,39.8,30.01,ESE,117,5.0,6.0,100,0.00,,,0.00,Wunderground v.1.15,2013-04-09 10:07:00,
2013-04-09 06:17:00,39.8,39.8,30.01,East,99,6.0,6.0,100,0.00,,,0.00,Wunderground v.1.15,2013-04-09 10:17:00,
2013-04-09 06:27:00,39.8,39.8,29.99,ESE,112,4.0,7.0,100,0.00,,,0.00,Wunderground v.1.15,2013-04-09 10:27:00,
2013-04-09 06:37:00,39.8,39.8,29.99,SE,134,7.0,9.0,100,0.00,,,0.00,Wunderground v.1.15,2013-04-09 10:37:00,
2013-04-09 06:47:00,39.8,39.8,29.99,East,86,6.0,6.0,100,0.00,,,0.00,Wunderground v.1.15,2013-04-09 10:47:00,
2013-04-09 07:17:00,40.1,40.1,29.98,ENE,78,6.0,6.0,100,0.00,,,0.00,Wunderground v.1.15,2013-04-09 11:17:00,
2013-04-09 07:37:00,40.5,40.5,29.98,East,88,7.0,10.0,100,0.00,,,0.00,Wunderground v.1.15,2013-04-09 11:37:00,
2013-04-09 07:47:00,40.6,40.6,29.99,ENE,60,6.0,6.0,100,0.00,,,0.00,Wunderground v.1.15,2013-04-09 11:47:00,
2013-04-09 07:57:00,40.8,40.8,29.99,East,98,6.0,8.0,100,0.00,,,0.00,Wunderground v.1.15,2013-04-09 11:57:00,
2013-04-09 08:07:00,40.8,40.8,29.99,ESE,106,6.0,6.0,100,0.00,,,0.00,Wunderground v.1.15,2013-04-09 12:07:00,
2013-04-09 08:17:00,40.9,40.9,30.00,East,101,6.0,7.0,100,0.00,,,0.00,Wunderground v.1.15,2013-04-09 12:17:00,
2013-04-09 08:27:00,40.9,40.9,29.99,East,84,6.0,7.0,100,0.00,,,0.00,Wunderground v.1.15,2013-04-09 12:27:00,
2013-04-09 08:37:00,41.1,41.1,29.99,East,84,8.0,8.0,100,0.00,,,0.00,Wunderground v.1.15,2013-04-09 12:37:00,
2013-04-09 08:47:00,41.3,41.3,29.98,East,92,8.0,8.0,100,0.00,,,0.00,Wunderground v.1.15,2013-04-09 12:47:00,
2013-04-09 08:57:00,41.5,41.5,29.97,ESE,103,7.0,7.0,100,0.00,,,0.00,Wunderground v.1.15,2013-04-09 12:57:00,
2013-04-09 09:07:00,41.5,41.5,29.97,ESE,103,8.0,12.0,100,0.00,,,0.00,Wunderground v.1.15,2013-04-09 13:07:00,
2013-04-09 09:17:00,41.5,41.5,29.97,ESE,103,9.0,9.0,100,0.00,,,0.00,Wunderground v.1.15,2013-04-09 13:17:00,
2013-04-09 09:27:00,41.6,41.6,29.96,East,95,9.0,9.0,100,0.00,,,0.00,Wunderground v.1.15,2013-04-09 13:27:00,
2013-04-09 09:37:00,41.9,41.9,29.96,East,98,8.0,8.0,100,0.00,,,0.00,Wunderground v.1.15,2013-04-09 13:37:00,
2013-04-09 09:47:00,42.3,42.3,29.95,East,95,6.0,6.0,100,0.00,,,0.00,Wunderground v.1.15,2013-04-09 13:47:00,
2013-04-09 09:57:00,42.3,42.3,29.95,East,92,8.0,8.0,100,0.00,,,0.00,Wunderground v.1.15,2013-04-09 13:57:00,
2013-04-09 10:07:00,42.3,42.3,29.95,East,94,8.0,8.0,100,0.00,,,0.00,Wunderground v.1.15,2013-04-09 14:07:00,
2013-04-09 10:27:00,42.5,42.5,29.98,East,80,4.0,4.0,100,0.00,,,0.00,Wunderground v.1.15,2013-04-09 14:27:00,
2013-04-09 10:37:00,42.5,42.5,29.98,East,81,3.0,3.0,100,0.25,,,0.04,Wunderground v.1.15,2013-04-09 14:37:00,
2013-04-09 10:47:00,42.6,42.6,29.96,ENE,74,5.0,5.0,100,0.22,,,0.09,Wunderground v.1.15,2013-04-09 14:47:00,
2013-04-09 10:57:00,42.8,42.8,29.96,East,81,3.0,5.0,100,0.09,,,0.10,Wunderground v.1.15,2013-04-09 14:57:00,
2013-04-09 11:07:00,42.8,42.8,29.96,NE,55,4.0,4.0,100,0.09,,,0.12,Wunderground v.1.15,2013-04-09 15:07:00,
2013-04-09 11:17:00,42.9,42.9,29.97,East,83,6.0,6.0,100,0.06,,,0.13,Wunderground v.1.15,2013-04-09 15:17:00,
2013-04-09 11:27:00,43.1,43.1,29.93,ENE,78,9.0,9.0,100,0.05,,,0.13,Wunderground v.1.15,2013-04-09 15:27:00,
2013-04-09 11:37:00,43.1,43.1,29.93,NNE,22,7.0,7.0,100,0.00,,,0.13,Wunderground v.1.15,2013-04-09 15:37:00,
2013-04-09 11:47:00,43.1,43.1,29.99,NE,44,6.0,6.0,100,0.00,,,0.14,Wunderground v.1.15,2013-04-09 15:47:00,
2013-04-09 11:57:00,43.1,43.1,29.96,NE,34,5.0,6.0,100,0.17,,,0.17,Wunderground v.1.15,2013-04-09 15:57:00,
2013-04-09 12:07:00,43.1,43.1,29.96,ENE,59,6.0,6.0,100,0.09,,,0.18,Wunderground v.1.15,2013-04-09 16:07:00,
2013-04-09 12:17:00,43.1,43.1,29.94,ENE,72,7.0,7.0,100,0.04,,,0.19,Wunderground v.1.15,2013-04-09 16:17:00,
2013-04-09 12:27:00,43.1,43.1,29.93,NE,53,6.0,6.0,100,0.07,,,0.20,Wunderground v.1.15,2013-04-09 16:27:00,
2013-04-09 12:37:00,42.9,42.9,29.93,ENE,57,7.0,7.0,100,0.11,,,0.22,Wunderground v.1.15,2013-04-09 16:37:00,
2013-04-09 12:47:00,43.1,43.1,29.91,East,87,7.0,7.0,100,0.08,,,0.24,Wunderground v.1.15,2013-04-09 16:47:00,
2013-04-09 12:57:00,42.9,42.9,29.91,East,80,7.0,8.0,100,0.10,,,0.25,Wunderground v.1.15,2013-04-09 16:57:00,
2013-04-09 13:07:00,42.9,42.9,29.91,ENE,65,6.0,6.0,100,0.04,,,0.25,Wunderground v.1.15,2013-04-09 17:07:00,
2013-04-09 13:17:00,43.1,43.1,29.93,NNE,15,5.0,5.0,100,0.00,,,0.26,Wunderground v.1.15,2013-04-09 17:17:00,
2013-04-09 13:27:00,42.9,42.9,29.94,NNE,26,4.0,7.0,100,0.15,,,0.30,Wunderground v.1.15,2013-04-09 17:27:00,
2013-04-09 13:37:00,43.1,43.1,29.94,ENE,62,7.0,10.0,100,0.15,,,0.33,Wunderground v.1.15,2013-04-09 17:37:00,
2013-04-09 13:47:00,43.2,43.2,29.90,ENE,61,9.0,12.0,100,0.04,,,0.33,Wunderground v.1.15,2013-04-09 17:47:00,
2013-04-09 13:57:00,43.3,43.3,29.88,East,83,9.0,9.0,100,0.00,,,0.33,Wunderground v.1.15,2013-04-09 17:57:00,
2013-04-09 14:07:00,43.5,43.5,29.88,ENE,64,8.0,8.0,100,0.00,,,0.34,Wunderground v.1.15,2013-04-09 18:07:00,
2013-04-09 14:17:00,43.5,43.5,29.87,East,88,7.0,13.0,100,0.00,,,0.34,Wunderground v.1.15,2013-04-09 18:17:00,
2013-04-09 14:27:00,43.5,43.5,29.86,East,82,9.0,9.0,100,0.00,,,0.34,Wunderground v.1.15,2013-04-09 18:27:00,
2013-04-09 14:37:00,43.6,43.6,29.86,East,99,7.0,11.0,100,0.00,,,0.34,Wunderground v.1.15,2013-04-09 18:37:00,
2013-04-09 14:47:00,43.8,43.8,29.86,East,84,8.0,8.0,100,0.00,,,0.34,Wunderground v.1.15,2013-04-09 18:47:00,
2013-04-09 14:57:00,43.9,43.9,29.86,ENE,63,9.0,11.0,100,0.00,,,0.34,Wunderground v.1.15,2013-04-09 18:57:00,
2013-04-09 15:07:00,44.2,44.2,29.86,ESE,107,9.0,12.0,100,0.00,,,0.34,Wunderground v.1.15,2013-04-09 19:07:00,
2013-04-09 15:17:00,44.6,44.6,29.85,East,83,9.0,9.0,100,0.00,,,0.34,Wunderground v.1.15,2013-04-09 19:17:00,
2013-04-09 15:27:00,44.9,44.9,29.85,ESE,106,9.0,9.0,100,0.00,,,0.34,Wunderground v.1.15,2013-04-09 19:27:00,
2013-04-09 15:37:00,45.7,45.2,29.85,East,98,9.0,9.0,98,0.00,,,0.34,Wunderground v.1.15,2013-04-09 19:37:00,
2013-04-09 15:47:00,46.0,46.0,29.85,East,89,8.0,8.0,100,0.00,,,0.34,Wunderground v.1.15,2013-04-09 19:47:00,
2013-04-09 15:57:00,46.1,46.1,29.85,East,98,8.0,8.0,100,0.00,,,0.34,Wunderground v.1.15,2013-04-09 19:57:00,
2013-04-09 16:07:00,46.4,46.4,29.85,ESE,107,7.0,7.0,100,0.00,,,0.34,Wunderground v.1.15,2013-04-09 20:07:00,
2013-04-09 16:17:00,46.8,46.8,29.84,ESE,105,8.0,12.0,100,0.00,,,0.34,Wunderground v.1.15,2013-04-09 20:17:00,
2013-04-09 16:27:00,47.0,47.0,29.83,East,96,7.0,7.0,100,0.00,,,0.34,Wunderground v.1.15,2013-04-09 20:27:00,
2013-04-09 16:37:00,47.1,47.1,29.83,East,84,6.0,6.0,100,0.00,,,0.34,Wunderground v.1.15,2013-04-09 20:37:00,
2013-04-09 16:47:00,46.8,46.8,29.85,ENE,57,10.0,10.0,100,0.00,,,0.35,Wunderground v.1.15,2013-04-09 20:47:00,
2013-04-09 16:57:00,46.5,46.5,29.83,SE,127,10.0,14.0,100,1.51,,,0.48,Wunderground v.1.15,2013-04-09 20:57:00,
2013-04-09 17:07:00,46.7,46.7,29.83,ESE,103,13.0,13.0,100,0.42,,,0.63,Wunderground v.1.15,2013-04-09 21:07:00,
2013-04-09 17:17:00,47.4,47.4,29.80,ESE,103,10.0,11.0,100,0.17,,,0.74,Wunderground v.1.15,2013-04-09 21:17:00,
2013-04-09 17:27:00,47.3,47.3,29.84,NNE,24,6.0,6.0,100,0.04,,,0.74,Wunderground v.1.15,2013-04-09 21:27:00,
2013-04-09 17:37:00,47.3,47.3,29.84,East,88,4.0,4.0,100,0.04,,,0.75,Wunderground v.1.15,2013-04-09 21:37:00,
2013-04-09 17:47:00,47.1,47.1,29.84,East,88,3.0,6.0,100,0.00,,,0.75,Wunderground v.1.15,2013-04-09 21:47:00,
2013-04-09 17:57:00,47.0,47.0,29.83,NE,46,6.0,6.0,100,0.00,,,0.75,Wunderground v.1.15,2013-04-09 21:57:00,
2013-04-09 18:07:00,47.1,47.1,29.83,North,355,4.0,4.0,100,0.00,,,0.76,Wunderground v.1.15,2013-04-09 22:07:00,
2013-04-09 18:17:00,47.1,47.1,29.86,NNE,15,3.0,3.0,100,0.10,,,0.77,Wunderground v.1.15,2013-04-09 22:17:00,
2013-04-09 18:27:00,47.1,47.1,29.87,NNE,29,2.0,4.0,100,0.09,,,0.79,Wunderground v.1.15,2013-04-09 22:27:00,
2013-04-09 18:37:00,47.1,47.1,29.87,NNE,21,4.0,7.0,100,0.07,,,0.80,Wunderground v.1.15,2013-04-09 22:37:00,
2013-04-09 18:47:00,47.1,47.1,29.87,NE,35,4.0,4.0,100,0.00,,,0.80,Wunderground v.1.15,2013-04-09 22:47:00,
2013-04-09 18:57:00,46.8,46.8,29.89,NNE,24,5.0,5.0,100,0.00,,,0.80,Wunderground v.1.15,2013-04-09 22:57:00,
2013-04-09 19:07:00,46.5,46.5,29.89,NE,46,5.0,8.0,100,0.76,,,0.83,Wunderground v.1.15,2013-04-09 23:07:00,
2013-04-09 19:17:00,46.4,46.4,29.87,ENE,65,5.0,5.0,100,0.19,,,0.87,Wunderground v.1.15,2013-04-09 23:17:00,
2013-04-09 19:27:00,46.2,46.2,29.88,NE,42,5.0,5.0,100,0.16,,,0.90,Wunderground v.1.15,2013-04-09 23:27:00,
2013-04-09 19:37:00,46.2,46.2,29.88,NNW,341,5.0,6.0,100,0.07,,,0.91,Wunderground v.1.15,2013-04-09 23:37:00,
2013-04-09 19:47:00,46.2,46.2,29.90,NE,40,5.0,5.0,100,0.14,,,0.94,Wunderground v.1.15,2013-04-09 23:47:00,
2013-04-09 19:57:00,46.0,46.0,29.88,ENE,60,6.0,6.0,100,0.19,,,1.00,Wunderground v.1.15,2013-04-09 23:57:00,
2013-04-09 20:07:00,45.8,45.8,29.88,NE,36,6.0,7.0,100,0.26,,,1.03,Wunderground v.1.15,2013-04-10 00:07:00,
2013-04-09 20:17:00,45.5,45.5,29.90,NNE,17,7.0,9.0,100,0.25,,,1.07,Wunderground v.1.15,2013-04-10 00:17:00,
2013-04-09 20:27:00,45.2,45.2,29.91,NNE,29,6.0,6.0,100,0.06,,,1.08,Wunderground v.1.15,2013-04-10 00:27:00,
2013-04-09 20:37:00,44.6,44.6,29.91,NNE,18,8.0,8.0,100,0.07,,,1.09,Wunderground v.1.15,2013-04-10 00:37:00,
2013-04-09 20:47:00,44.1,44.1,29.90,NNE,19,8.0,8.0,100,0.00,,,1.09,Wunderground v.1.15,2013-04-10 00:47:00,
2013-04-09 21:07:00,43.1,42.8,29.91,ENE,67,9.0,9.0,99,0.00,,,1.09,Wunderground v.1.15,2013-04-10 01:07:00,
2013-04-09 21:17:00,42.9,42.9,29.91,ENE,61,8.0,8.0,100,0.00,,,1.09,Wunderground v.1.15,2013-04-10 01:17:00,
2013-04-09 21:27:00,42.9,42.6,29.92,NNE,28,9.0,9.0,99,0.00,,,1.09,Wunderground v.1.15,2013-04-10 01:27:00,
2013-04-09 21:37:00,42.6,42.3,29.92,NE,51,8.0,8.0,99,0.00,,,1.09,Wunderground v.1.15,2013-04-10 01:37:00,
2013-04-09 21:47:00,42.5,42.2,29.93,ENE,74,8.0,12.0,99,0.99,,,1.11,Wunderground v.1.15,2013-04-10 01:47:00,
2013-04-09 21:57:00,42.5,42.2,29.93,East,88,8.0,8.0,99,0.07,,,1.12,Wunderground v.1.15,2013-04-10 01:57:00,
2013-04-09 22:07:00,42.3,42.0,29.93,ENE,76,8.0,10.0,99,0.05,,,1.13,Wunderground v.1.15,2013-04-10 02:07:00,
2013-04-09 22:17:00,42.3,42.0,29.94,NE,53,7.0,7.0,99,0.00,,,1.13,Wunderground v.1.15,2013-04-10 02:17:00,
2013-04-09 22:27:00,42.3,42.0,29.96,East,80,6.0,7.0,99,0.00,,,1.13,Wunderground v.1.15,2013-04-10 02:27:00,
2013-04-09 22:37:00,42.3,42.0,29.96,ENE,63,7.0,10.0,99,0.00,,,1.13,Wunderground v.1.15,2013-04-10 02:37:00,
2013-04-09 22:47:00,42.2,41.9,29.95,ENE,72,8.0,8.0,99,0.00,,,1.14,Wunderground v.1.15,2013-04-10 02:47:00,
2013-04-09 22:57:00,42.2,41.9,29.96,ENE,73,6.0,8.0,99,0.07,,,1.15,Wunderground v.1.15,2013-04-10 02:57:00,
2013-04-09 23:07:00,42.1,41.8,29.96,ENE,62,6.0,6.0,99,0.13,,,1.17,Wunderground v.1.15,2013-04-10 03:07:00,
2013-04-09 23:17:00,42.1,41.8,29.96,ENE,59,6.0,6.0,99,0.07,,,1.18,Wunderground v.1.15,2013-04-10 03:17:00,
2013-04-09 23:27:00,41.9,41.6,29.95,ENE,59,6.0,6.0,99,0.00,,,1.18,Wunderground v.1.15,2013-04-10 03:27:00,
2013-04-09 23:37:00,41.8,41.5,29.95,NE,55,8.0,8.0,99,0.00,,,1.19,Wunderground v.1.15,2013-04-10 03:37:00,
2013-04-09 23:47:00,41.8,41.5,29.95,ENE,69,9.0,9.0,99,0.00,,,1.19,Wunderground v.1.15,2013-04-10 03:47:00,
2013-04-09 23:57:00,41.6,41.3,29.95,East,82,7.0,7.0,99,0.00,,,0.00,Wunderground v.1.15,2013-04-10 03:57:00,